C/2019 N1 ( ATLAS )

Japanese version
Home page
Updated on September 24, 2019

---------------------------------------------------------------------

* Profile

Discovery Date July 5, 2019
Magnitude 18.6 mag
Discoverer Asteroid Terrestrial-Impact Last Alert System (ATLAS) search program

* Pictures

* Orbital Elements

Epoch 2020 Dec. 17.0 TT = JDT 2459200.5
T 2020 Dec. 1.76403 TT                                  Williams
q   1.7045363            (2000.0)            P               Q
z  -0.0000191      Peri.  193.44350     -0.93824590     +0.25607328
 +/-0.0000505      Node    13.57313     -0.14507365     +0.31925232
e   1.0000325      Incl.   82.42741     -0.31408321     -0.91241681
From 147 observations 2019 June 10-Aug. 20, mean residual 0".4.

* Finding Charts

* Magnitudes Graph

        m1 = 6.5 + 5 log d + 10.0 log r

---------------------------------------------------------------------

The orbital elements are published on M.P.E.C. 2019-Q135.
The charts are made with StellaNavigator Ver.10 (AstroArts).
The magnitudes graphs are made with Comet for Windows.

---------------------------------------------------------------------

Copyright(C) Seiichi Yoshida (comet@aerith.net). All rights reserved.